Powrót do katalogu

STARLINK-3336

AktywnyŁącznośćVLEO
NORAD 50818·PAYLOAD·🇺🇸 United States

Wystrzelony Jan 6, 2022 z Cape Canaveral Space Force Station

Loading…

Następne Przeloty (najbliższe 24 godziny)

TLE

ŚwieżeSource: CelesTrak SupGP

Epoka: Sep 14, 2026, 21:01 UTC

1 50818C 22001R   26257.87618056  .00029512  00000+0  87207-3 0  2572
2 50818  53.1602  28.3517 0001130  76.5092  92.2809 15.34371387    14

Śledź STARLINK-3336 w czasie rzeczywistym z AllMySat

Download on the App Store